Regional Weather Roundup
Issued by NWS

Home | Current Version | Previous Version | Graphics & Text | Print | Product List | Glossary On
Versions: 1 2 3 4 5 6 7 8 9 10 11 12 13 14 15 16 17 18 19 20 21 22 23 24 25 26 27 28 29 30 31 32 33 34 35 36 37 38 39 40 41 42 43 44 45 46 47 48 49 50
000
ASUS43 KDMX 170206
RWRIA

WEATHER ROUNDUP FOR IOWA
NATIONAL WEATHER SERVICE DES MOINES IA
900 PM CDT MON OCT 16 2017

NOTE: "FAIR" INDICATES FEW OR NO CLOUDS BELOW 12,000 FEET WITH NO
SIGNIFICANT WEATHER AND/OR OBSTRUCTIONS TO VISIBILITY.

* - THESE STATIONS ARE NOT NWS STATIONS...THUS NOT UNDER NWS
QUALITY CONTROL.  THEY ALSO DO NOT REPORT WEATHER SUCH
AS PRECIPITATION OR FOG.

IAZ001>003-012>014-020>022-031>034-043>046-170300-
   NORTHWEST IOWA

CITY           SKY/WX    TMP DP  RH WIND       PRES   REMARKS
CARROLL *      CLEAR     55  45  67 S9        30.10S
CHEROKEE *     PTCLDY    55  40  56 S9        30.04F
DENISON *      PTCLDY    59  39  47 S9        30.11S
LE MARS *      CLEAR     55  41  58 S9        30.03S
ORANGE CITY *  CLOUDY    57  43  58 S3        30.04S
SHELDON *      PTCLDY    59  39  47 S8        30.02S
SIOUX CITY     CLEAR     55  41  59 SE7       30.05S
SPENCER        CLOUDY    57  39  51 S12       30.04F
STORM LAKE *   CLEAR     54  39  58 S9        30.07F
$$

IAZ055>058-069>071-079>083-090>094-170300-
   SOUTHWEST IOWA

CITY           SKY/WX    TMP DP  RH WIND       PRES   REMARKS
ATLANTIC *     CLEAR     52  41  66 S7        30.13S
AUDUBON *      CLEAR     57  39  51 S7        30.13R
CLARINDA *     CLEAR     52  41  66 S8        30.19S
COUNCIL BLFS * CLEAR     63  39  42 S12G21    30.12S
CRESTON *      CLEAR     55  41  58 S13       30.17F
HARLAN  *      PTCLDY    55  39  54 S8        30.15S
LAMONI         CLEAR     57  41  55 S10       30.19S
RED OAK *      CLEAR     55  41  58 S8        30.15S
SHENANDOAH *   CLEAR     57  39  51 S10       30.16S
$$

IAZ047>049-059>061-072>074-084-170300-
   CENTRAL IOWA

CITY           SKY/WX    TMP DP  RH WIND       PRES   REMARKS
AMES           CLEAR     53  42  66 S8        30.13R
ANKENY *       CLEAR     57  39  51 S9        30.15S
BOONE *        CLEAR     57  39  51 S12       30.12S
CHARITON *     CLEAR     55  39  54 S10       30.18R
DES MOINES     CLEAR     56  40  55 S9        30.15S
GRINNELL*      CLEAR     55  38  52 S9        30.17S
KNOXVILLE *    CLEAR     55  37  50 S8        30.16S
MARSHALLTOWN   CLEAR     52  38  58 S7        30.13S
NEWTON *       CLEAR     52  39  62 S9        30.16S
PELLA *        CLEAR     53  39  59 S7        30.18S
PERRY *          N/A     53  39  60 S7        30.13S
$$

IAZ004>006-015-016-023>025-035-036-170300-
   NORTH CENTRAL IOWA

CITY           SKY/WX    TMP DP  RH WIND       PRES   REMARKS
ALGONA *       CLEAR     55  39  54 S12       30.06F
CLARION *      CLEAR     52  41  66 S9        30.09S
ESTHERVILLE    PTCLDY    53  40  61 S12       30.03F
FORT DODGE *   CLEAR     57  40  52 S12       30.09F
MASON CITY     CLOUDY    52  38  58 S10       30.09F
FOREST CITY *    N/A     55  39  54 S10       30.06F
WEBSTER CITY * CLEAR     52  39  62 S9        30.09S
IOWA FALLS *     N/A     52  40  65 S9        30.12F
$$

IAZ007>011-017>019-026>030-037>042-050>054-066-170300-
   NORTHEAST IOWA

CITY           SKY/WX    TMP DP  RH WIND       PRES   REMARKS
CEDAR RAPIDS   CLEAR     51  37  58 S7        30.16F
CHARLES CITY * CLEAR     55  36  47 S9        30.11S
CLINTON *      CLEAR     49  40  71 S7        30.20S
DECORAH *      CLEAR     54  37  54 S8        30.09F
DUBUQUE        CLEAR     48  37  65 S7        30.17S
MONTICELLO *   CLEAR     50  37  62 S6        30.16F
OELWEIN *      CLEAR     52  39  62 S12       30.14S
WATERLOO       CLEAR     54  37  52 S9        30.12S
$$

IAZ064-065-067-068-078-170300-
   EAST CENTRAL IOWA

CITY           SKY/WX    TMP DP  RH WIND       PRES   REMARKS
DAVENPORT      CLEAR     49  39  68 S7        30.22S
IOWA CITY      CLEAR     52  39  61 S6        30.20S
MUSCATINE *    CLEAR     48  41  76 S5        30.21S
QUAD CITIES    CLEAR     53  37  54 S7        30.20S
$$

IAZ062-063-075>077-085>089-095>099-170300-
   SOUTHEAST IOWA

CITY           SKY/WX    TMP DP  RH WIND       PRES   REMARKS
BURLINGTON     CLEAR     52  41  66 S6        30.22F
FAIRFIELD *    CLEAR     54  37  54 S8        30.20S
FORT MADISON * CLEAR     52  43  71 S6        30.24S
KEOKUK *       CLEAR     54  39  58 S6        30.23S
OSKALOOSA *      N/A     48  40  73 S9        30.19S
OTTUMWA        CLEAR     53  39  59 S10       30.19S
WASHINGTON *   CLEAR     50  39  66 S8        30.21S
$$

ABBREVIATIONS USED IN REMARKS
   TC - TEMPERATURES IN CELSIUS
  WCI - WIND CHILL INDEX
   HX - HEAT INDEX
  VSB - VISIBILITY
$$





USA.gov is the U.S. government's official web portal to all federal, state and local government web resources and services.